Regional Weather Roundup
Issued by NWS

Home | Current Version | Previous Version | Graphics & Text | Print | Product List | Glossary On
Versions: 1 2 3 4 5 6 7 8 9 10 11 12 13 14 15 16 17 18 19 20 21 22 23 24 25 26 27 28 29 30 31 32 33 34 35 36 37 38 39 40 41 42 43 44 45 46 47 48 49 50
591
ASUS44 KJAN 180110
RWRMS

MISSISSIPPI HOURLY WEATHER ROUNDUP
NATIONAL WEATHER SERVICE JACKSON MS
800 PM CDT THU APR 17 2014

NOTE: "FAIR: INDICATES FEW OR NO CLOUDS BELOW 12,000 FEET WITH NO
SIGNIFICANT WEATHER AND/OR OBSTRUCTIONS TO VISIBILITY.

MSZ001>002-007>008-010>013-018>021-025>028-034>036-180200-
NORTHWEST MISSISSIPPI

CITY           SKY/WX    TMP DP  RH WIND       PRES   REMARKS
CLARKSDALE       N/A     63  50  63 CALM      30.22R
CLEVELAND      FAIR      63  55  76 CALM      30.19R
GREENWOOD      CLOUDY    60  51  72 CALM      30.19S
GREENVILLE     CLOUDY    62  54  74 N3        30.18R
GRENADA        CLOUDY    59  50  72 CALM      30.20S
OLIVE BRANCH   MOCLDY    61  43  51 CALM      30.23R
OXFORD         FAIR      59  46  63 CALM      30.24R
TUNICA         CLOUDY    61  48  63 SE3       30.22R
$$

MSZ003>006-009-014>017-022>024-029>033-037>039-180200-
NORTHEAST MISSISSIPPI

CITY           SKY/WX    TMP DP  RH WIND       PRES   REMARKS
BELMONT        MOCLDY    60  47  60 CALM      30.22R
COLUMBUS AFB   CLOUDY    61  50  66 S3        30.21S
CORINTH        MOCLDY    63  45  51 CALM      30.22R
GOLDN TRIANGLE PTCLDY    61  48  63 S7        30.23F
STARKVILLE     FAIR      59  52  77 SE3       30.20S
TUPELO         CLOUDY    62  47  57 NE3       30.20S
$$

MSZ040-058-180200-
CENTRAL MISSISSIPPI

CITY           SKY/WX    TMP DP  RH WIND       PRES   REMARKS
JACKSON INTL   CLOUDY    60  53  77 NE3       30.18S
JACKSON HAWKNS CLOUDY    63  50  62 E5        30.18S
MERIDIAN KEY   CLOUDY    60  51  72 NE3       30.20F
MERIDIAN NAS   CLOUDY    60  52  74 CALM      30.21S
RAYMOND        FAIR      59  55  88 CALM      30.17F
VICKSBURG      CLOUDY    64  55  72 SE3       30.18R
$$

MSZ059>079-180200-
SOUTH MISSISSIPPI

CITY           SKY/WX    TMP DP  RH WIND       PRES   REMARKS
BROOKHAVEN     FAIR      61  55  82 CALM      30.18F
COLUMBIA       FAIR      61  55  82 MISG      30.15S
HATTIESBURG    CLOUDY    62  56  80 NE3       30.17F
MCCOMB         CLOUDY    62  55  77 E5        30.15F
NATCHEZ        CLOUDY    63  54  72 CALM      30.16F
PINE BELT      CLOUDY    61  54  77 NE6       30.17F
$$

MSZ080>082-180200-
COASTAL MISSISSIPPI

CITY           SKY/WX    TMP DP  RH WIND       PRES   REMARKS
BAY ST LOUIS   LGT RAIN  61  57  88 CALM      30.15F
BILOXI         CLOUDY    65  60  82 N2        30.15R
PASCAGOULA     CLOUDY    64  59  83 N3        30.15R
GULFPORT       CLOUDY    66  60  81 CALM      30.15R
$$



USA.gov is the U.S. government's official web portal to all federal, state and local government web resources and services.